Date,TemperatureHighF,TemperatureAvgF,TemperatureLowF,DewpointHighF,DewpointAvgF,DewpointLowF,HumidityHigh,HumidityAvg,HumidityLow,PressureMaxIn,PressureMinIn,WindSpeedMaxMPH,WindSpeedAvgMPH,GustSpeedMaxMPH,PrecipitationSumIn
2013-9-1,58,55,52,55,50,46,96,85,77,30.24,30.09,14,8,27,0.05
2013-9-2,66,61,56,61,58,55,97,91,80,30.24,30.07,13,8,22,0.04
2013-9-3,69,62,58,62,57,51,97,85,64,30.24,30.18,13,5,23,0.04
2013-9-4,68,60,53,58,52,47,94,76,56,30.18,29.89,9,3,15,0.00
2013-9-5,63,56,45,50,45,38,84,69,50,29.92,29.86,6,2,12,0.00
2013-9-6,57,49,43,47,44,37,94,81,65,29.92,29.86,7,2,12,0.58
2013-9-7,62,52,46,58,47,43,97,84,67,29.89,29.71,10,4,15,0.33
2013-9-8,61,52,45,50,45,41,88,77,63,29.95,29.89,7,3,10,0.00
2013-9-9,62,53,48,52,48,45,91,83,60,30.15,29.92,8,1,16,0.04
2013-9-10,65,55,47,52,46,43,86,73,53,30.21,30.15,6,2,10,0.00
2013-9-11,60,55,50,57,52,46,95,91,82,30.21,30.07,6,2,8,0.42
2013-9-12,64,58,52,59,55,50,96,92,81,30.07,29.86,8,4,13,0.29
2013-9-13,52,50,48,50,48,47,96,94,90,30.09,29.95,4,1,8,0.12
2013-9-14,60,51,42,53,46,42,98,84,64,30.07,29.89,6,2,9,0.04
2013-9-15,57,49,41,56,47,39,98,90,75,29.89,29.18,15,8,27,0.96
2013-9-16,54,46,39,49,43,38,97,89,75,29.33,29.24,10,6,19,0.04
2013-9-17,55,48,43,49,43,40,90,83,72,29.39,29.27,10,5,15,0.00
2013-9-18,56,48,40,50,43,38,96,85,69,29.71,29.39,9,4,14,0.00
2013-9-19,52,48,44,50,46,41,97,95,90,29.74,29.47,6,1,10,0.45
2013-9-20,58,51,44,50,47,43,98,87,70,30.01,29.74,9,3,15,0.00
2013-9-21,62,55,48,59,53,45,96,91,85,30.09,30.01,9,3,14,0.00
2013-9-22,66,60,54,60,57,52,96,90,76,30.27,30.09,12,5,17,0.05
2013-9-23,64,58,52,60,56,51,98,93,86,30.27,30.09,4,1,7,0.00
2013-9-24,59,57,55,58,56,54,98,97,95,30.09,29.95,7,2,10,0.00
2013-9-25,55,52,47,55,51,45,98,96,90,30.03,29.89,10,5,14,0.04
2013-9-26,57,50,42,50,46,41,98,88,73,30.09,30.03,6,2,10,0.00
2013-9-27,58,54,51,57,53,49,98,96,93,30.03,29.92,3,1,5,0.08
2013-9-28,63,55,48,58,52,47,98,90,73,29.92,29.83,7,2,10,0.00
2013-9-29,60,53,47,54,48,45,96,84,65,29.92,29.86,11,6,16,0.00
2013-9-30,59,53,49,50,48,46,93,81,66,29.89,29.80,12,7,18,0.00